Trenton, NJ

12:50 PM EDT on September 26, 2016 (GMT -0400)
Trenton Mercer

Weather History for KTTN - April, 2013

Change the Weather History Date:

Thursday, April 25, 2013

  Actual Average Record
Temperature  
Mean Temperature 54 °F 54 °F  
Max Temperature 63 °F 65 °F 91 °F (1915)
Min Temperature 45 °F 44 °F 30 °F (1919)
Degree Days  
Heating Degree Days 11 11  
Month to date heating degree days 339 369  
Since 1 July heating degree days 4725 4915  
Cooling Degree Days 0 0  
Month to date cooling degree days 14 0  
Year to date cooling degree days 14 0  
Growing Degree Days 4 (Base 50)    
Moisture  
Dew Point 32 °F    
Average Humidity 49    
Maximum Humidity 72    
Minimum Humidity 25    
Precipitation  
Precipitation T in 0.11 in 1.14 in (2010)
Month to date precipitation 2.01 3.08  
Year to date precipitation 9.22 12.69  
Sea Level Pressure  
Sea Level Pressure 30.12 in    
Wind  
Wind Speed 8 mph (NW)    
Max Wind Speed 23 mph    
Max Gust Speed 31 mph    
Visibility 10 miles    
Events      
T = Trace of Precipitation, MM = Missing Value Source: NWS Daily Summary

Daily Weather History Graph

Daily Weather History Graph

Search for Another Location

Airport or City:

Trip Planner

Search our weather history database for the weather conditions in past years. The results will help you decide how hot, cold, wet, or windy it might be!

Date:

Astronomy

Apr. 25, 2013 Rise Set
Actual Time 6:06 AM EDT 7:48 PM EDT
Civil Twilight 5:37 AM EDT 8:17 PM EDT
Nautical Twilight 5:02 AM EDT 8:52 PM EDT
Astronomical Twilight 4:25 AM EDT 9:30 PM EDT
Moon 7:58 PM EDT (4/25) 5:47 AM EDT (4/25)
Length of Visible Light 14h 40m
Length of Day
13h 42m
Full, 100% of the Moon is Illuminated
Apr 25
Full
Apr 25
Full
May 2
Last Quarter
May 9
New
May 18
First Quarter

Hourly Weather History & Observations

Time (EDT) Temp. Windchill Dew Point Humidity Pressure Visibility Wind Dir Wind Speed Gust Speed Precip Events Conditions
12:50 AM 60.8 °F - 53.6 °F 77% 29.90 in 10.0 mi WNW 10.4 mph 18.4 mph 0.00 in   Overcast
12:53 AM 62.1 °F - 54.0 °F 75% 29.89 in 10.0 mi NW 18.4 mph 26.5 mph 0.00 in   Overcast
1:12 AM 62.6 °F - 46.4 °F 55% 29.92 in 10.0 mi NW 11.5 mph 26.5 mph N/A   Overcast
1:53 AM 57.0 °F - 41.0 °F 55% 29.94 in 10.0 mi NNW 16.1 mph 25.3 mph N/A   Overcast
2:53 AM 51.1 °F - 34.0 °F 52% 29.98 in 10.0 mi NNW 23.0 mph 31.1 mph N/A   Mostly Cloudy
3:53 AM 48.9 °F - 32.0 °F 52% 30.01 in 10.0 mi NNW 10.4 mph 24.2 mph N/A   Overcast
4:53 AM 46.9 °F - 33.1 °F 59% 30.05 in 10.0 mi NNW 11.5 mph 18.4 mph 0.00 in   Overcast
5:53 AM 46.0 °F 41.4 °F 30.9 °F 56% 30.10 in 10.0 mi NNW 9.2 mph 18.4 mph N/A   Scattered Clouds
6:53 AM 45.0 °F 38.2 °F 28.9 °F 53% 30.14 in 10.0 mi North 15.0 mph 23.0 mph N/A   Clear
7:53 AM 46.0 °F 39.6 °F 28.9 °F 51% 30.18 in 10.0 mi North 15.0 mph 23.0 mph N/A   Clear
8:53 AM 48.0 °F - 28.9 °F 48% 30.19 in 10.0 mi North 15.0 mph - N/A   Clear
9:53 AM 50.0 °F - 28.0 °F 43% 30.19 in 10.0 mi North 11.5 mph 21.9 mph N/A   Clear
10:53 AM 53.1 °F - 30.0 °F 41% 30.19 in 10.0 mi North 8.1 mph 17.3 mph N/A   Clear
11:53 AM 55.0 °F - 28.0 °F 35% 30.21 in 10.0 mi WNW 11.5 mph - N/A   Clear
12:53 PM 55.9 °F - 30.0 °F 37% 30.19 in 10.0 mi Variable 4.6 mph 16.1 mph N/A   Clear
1:53 PM 57.9 °F - 28.9 °F 33% 30.18 in 10.0 mi Calm Calm - N/A   Clear
2:53 PM 60.1 °F - 28.9 °F 31% 30.17 in 10.0 mi Variable 4.6 mph - N/A   Clear
3:53 PM 62.1 °F - 28.0 °F 28% 30.16 in 10.0 mi Variable 4.6 mph - N/A   Clear
4:53 PM 62.1 °F - 27.0 °F 26% 30.15 in 10.0 mi Calm Calm - N/A   Clear
5:53 PM 61.0 °F - 27.0 °F 27% 30.17 in 10.0 mi Calm Calm - N/A   Clear
6:53 PM 61.0 °F - 26.1 °F 26% 30.17 in 10.0 mi West 5.8 mph - N/A   Clear
7:53 PM 57.9 °F - 24.1 °F 27% 30.19 in 10.0 mi West 3.5 mph - N/A   Clear
8:53 PM 57.0 °F - 24.1 °F 28% 30.21 in 10.0 mi WNW 3.5 mph - N/A   Clear
9:53 PM 55.0 °F - 25.0 °F 31% 30.24 in 10.0 mi WNW 5.8 mph - N/A   Clear
10:53 PM 51.1 °F - 28.9 °F 43% 30.25 in 10.0 mi Calm Calm - N/A   Clear
11:53 PM 50.0 °F - 28.9 °F 44% 30.25 in 10.0 mi West 3.5 mph - N/A   Clear